Flag for Canada Weather past 2 weeks in Burnaby, British Columbia, Canada

Now
73 °F

Overcast.


Feels Like: 77 °F
Forecast: 63 / 86 °F
Wind: 9 mph from Southeast

Location: Vancouver International Air-Port

Current Time: Jul 6, 2015 at 11:43:06 AM

Latest Report: Jul 6, 2015 at 11:00 AM


Visibility: 7 mi

Pressure: 29.98 "Hg

Humidity: 50%

Dew point: 54 °F

Location of BurnabyLocation

Historic Weather in Burnaby — Graph

°F

Burnaby temperature yesterday

Maximum temperature yesterday: 77 °F (at 2:00 PM)
Minimum temperature yesterday: 61 °F (at 1:00 AM)
Average temperature yesterday: 69 °F

Past Weeks' High & Low Weather Summary

 TemperatureHumidityPressure
High81 °F (Jun 29, 12:00 PM)94% (Jun 25, 12:00 AM)30.15 "Hg (Jun 25, 12:00 AM)
Low54 °F (Jun 23, 5:00 AM)40% (Jun 23, 9:00 PM)29.75 "Hg (Jul 4, 7:00 PM)
Average69 °F68%29.98 "Hg
* Reported Jun 21 10:00 AM — Jul 6 10:00 AM, Burnaby, Weather by CustomWeather, © 2015

Note: Actual official high and low records may vary slightly from our data, if they occured in-between our weather recording intervals... More about our weather records

Advertising

Burnaby weather history for previous 24 hours

 ConditionsComfort  
Time TempWeatherWind HumidityBarometerVisibility
10:00 AM
Mon, Jul 6
72 °FOvercast.12 mph53%29.98 "Hg7 mi
9:53 AM72 °FOvercast.12 mph53%29.98 "Hg7 mi
9:00 AM70 °FMostly cloudy.14 mph57%29.97 "Hg6 mi
8:00 AM66 °FMostly cloudy.12 mph64%29.96 "Hg5 mi
7:00 AM63 °FOvercast.10 mph73%29.94 "Hg3 mi
6:00 AM63 °FOvercast.7 mph73%29.93 "Hg3 mi
5:00 AM63 °FOvercast.6 mph77%29.91 "Hg2 mi
4:55 AM63 °FOvercast.6 mph77%29.91 "Hg2 mi
4:00 AM64 °FMostly cloudy.6 mph73%29.90 "Hg3 mi
3:00 AM63 °FMostly cloudy.9 mph68%29.89 "Hg3 mi
2:00 AM64 °FMostly cloudy.7 mph68%29.88 "Hg3 mi
1:00 AM64 °FOvercast.6 mph68%29.86 "Hg3 mi
12:00 AM66 °FOvercast.5 mph73%29.85 "Hg2 mi
11:00 PM
Sun, Jul 5
68 °FOvercast.8 mph69%29.83 "Hg2 mi
10:00 PM66 °FOvercast.8 mph73%29.83 "Hg2 mi
9:00 PM66 °FPartly sunny.12 mph78%29.81 "Hg3 mi
8:00 PM70 °FPartly sunny.8 mph73%29.80 "Hg3 mi
7:00 PM73 °FPartly sunny.10 mph61%29.80 "Hg3 mi
6:00 PM75 °FPartly sunny.13 mph54%29.81 "Hg3 mi
5:00 PM75 °FPartly sunny.17 mph57%29.82 "Hg5 mi
4:00 PM77 °FScattered clouds.16 mph57%29.83 "Hg6 mi
3:00 PM77 °FScattered clouds.20 mph51%29.83 "Hg10 mi
2:00 PM77 °FScattered clouds.18 mph51%29.85 "Hg15 mi
1:00 PM75 °FScattered clouds.21 mph54%29.85 "Hg20 mi
12:00 PM73 °FPartly sunny.16 mph61%29.87 "Hg20 mi
11:00 AM70 °FMostly cloudy.16 mph69%29.87 "Hg20 mi
Weather by CustomWeather, © 2015

See weather overviewHow to use our weather pages